Location: Cheching
(60.0667°N, 164.2167°W)
Time: 14:10:01
(UTC+00:00)

NOAA 19 - Pass Details

Date: 17 January 2021
Orbit: 840 x 862 km, 99.2° (Epoch: 01 March)

Event Time Altitude Azimuth Distance (km) Brightness Sun altitude
Rises 05:57:54 0° 205° (SSW) 3,433 8.7 -24.1°
Reaches altitude 10° 06:00:47 10° 220° (SW) 2,500 8.1 -24.5°
Maximum altitude 06:05:08 23° 272° (W) 1,752 7.6 -25.0°
Drops below altitude 10° 06:09:30 10° 324° (NW) 2,505 8.1 -25.6°
Sets 06:12:24 0° 339° (NNW) 3,443 8.7 -26.0°
